Regional Weather Roundup
Issued by NWS Bismarck, ND

Home | Current Version | Previous Version | Text Only | Print | Product List | Glossary On
Versions: 1 2 3 4 5 6 7 8 9 10 11 12 13 14 15 16 17 18 19 20 21 22 23 24 25 26 27 28 29 30 31 32 33 34 35 36 37 38 39 40 41 42 43 44 45 46 47 48 49 50
000
ASUS43 KBIS 281410
RWRBIS

NWR BROADCAST TEXT
NATIONAL WEATHER SERVICE BISMARCK ND
900 AM CDT SUN MAY 28 2017

NOTE: "FAIR" INDICATES FEW OR NO CLOUDS BELOW 12,000 FEET WITH NO
SIGNIFICANT WEATHER AND/OR OBSTRUCTIONS TO VISIBILITY.


CITY           SKY/WX    TMP DP  RH WIND       PRES   REMARKS
WILLISTON      PTSUNNY   58  37  45 NE5       29.98S
MINOT          FAIR      62  45  53 NW21G28   29.89S
MINOT AFB      FAIR      59  45  58 NW21      29.88S
BISMARCK       FAIR      61  43  51 NW15G22   29.93R
DICKINSON      CLOUDY    55  37  50 W16       29.99R
GARRISON         N/A     56  45  66 NW15      29.92R
HETTINGER ARPT FAIR      61  37  41 NW14G23   30.03R
JAMESTOWN      CLOUDY    60  47  61 NW15      29.82S
HAZEN          FAIR      59  45  58 NW12      29.96R
LINTON           N/A     57  54  88 NW12      29.94R
MANDAN         FAIR      61  43  51 NW14G20   29.93S
STANLEY        PTSUNNY   55  45  67 NW10G21   29.96F
TIOGA          FAIR      54  46  76 NW13      29.96F
WATFORD CITY   FAIR      57  39  51 W15       29.98R
$$

CITY           SKY/WX    TMP DP  RH WIND       PRES   REMARKS
GRAND FORKS    LGT RAIN  55  51  86 W12       29.75R
GRAND FORKS AF CLOUDY    55  49  81 NW13      29.76S
DEVILS LAKE    PTSUNNY   57  48  72 NW22      29.81R
FARGO          CLOUDY    57  49  74 NW13      29.77R
CAVALIER       PTSUNNY   52  50  93 NW12      29.75S
GRAFTON        PTSUNNY   54  54 100 NW13      29.78R
GWINNER        CLOUDY    59  48  67 MISG      29.82R
LANGDON        PTSUNNY   54  54 100 NW21      29.78S
ROLLA          PTSUNNY   54  46  76 NW21      29.82S
$$

CITY           SKY/WX    TMP DP  RH WIND       PRES   REMARKS
ABERDEEN       CLOUDY    59  47  64 NW13      29.86R
MOBRIDGE       FAIR      60  45  57 NW10      29.92R
BUFFALO          N/A     56  42  59 W8        30.01R
RAPID CITY     PTSUNNY   61  40  45 NW15      30.09R
GLASGOW        FAIR      57  45  64 NW8       30.05S
SIDNEY         FAIR      62  35  36 NW14      30.00R
WOLF POINT     PTSUNNY   62  43  49 W15       30.01S
GLENDIVE       FAIR      64  40  41 W10       30.04S
MILES CITY     PTSUNNY   60  41  49 W12       30.09R
BAKER          FAIR      58  40  51 NW9       30.07R
$$

CITY           SKY/WX    TMP DP  RH WIND       PRES   REMARKS
BILLINGS       PTSUNNY   58  43  57 NW10      30.21R
GREAT FALLS    FAIR      57  43  59 SW8       30.24R
REGINA         MOSUNNY   57  45  62 N15G25    29.98R
ESTEVAN        PTSUNNY   54  45  71 W15       29.92F
$$




USA.gov is the U.S. government's official web portal to all federal, state and local government web resources and services.